Weather reports worldwide

Advertisment
Stornoway, United Kingdom (3026): temperature & dewpoint: 14.06.2019 13:00:00 - 20.06.2019 13:00:00 (BST)Stornoway, United Kingdom (3026): temperature -20cm & temperature -100cm: 14.06.2019 13:00:00 - 20.06.2019 13:00:00 (BST)Stornoway, United Kingdom (3026): wind speed & gusts: 14.06.2019 13:00:00 - 20.06.2019 13:00:00 (BST)Stornoway, United Kingdom (3026): wind direction: 14.06.2019 13:00:00 - 20.06.2019 13:00:00 (BST)Stornoway, United Kingdom (3026): reduced air pressure: 14.06.2019 13:00:00 - 20.06.2019 13:00:00 (BST)Stornoway, United Kingdom (3026): visibility: 14.06.2019 13:00:00 - 20.06.2019 13:00:00 (BST)Stornoway, United Kingdom (3026): sunshine duration: 14.06.2019 13:00:00 - 20.06.2019 13:00:00 (BST)Stornoway, United Kingdom (3026): precipitation: 14.06.2019 13:00:00 - 20.06.2019 13:00:00 (BST)
Date & Time tt [°C] td [°C] tt -20cm [°C] tt -100cm [°C] ff [km/h] ff [kn] fx [km/h] fx [kn] dd ppp [hPa] vv [km] sd [min] rr [mm]
20.06.2019 13:00:00 12,7 7,5 - - 28 15 - - W 1002,7 80 6 -
20.06.2019 12:00:00 12,1 9,3 - - 34 18 46 25 W 1002,1 55 18 0,4
20.06.2019 11:00:00 10,8 9,1 - - 24 13 - - W 1001,5 75 6 0,2
20.06.2019 10:00:00 11,4 8,0 12,7 11,0 24 13 - - W 1000,8 35 30 0,0
20.06.2019 09:00:00 10,8 9,3 - - 21 11 - - SW 1000,6 75 6 0,0
20.06.2019 08:00:00 10,4 9,3 - - 22 12 - - SSW 1000,4 75 0 0,2
20.06.2019 07:00:00 9,7 8,6 - - 26 14 - - SSW 1000,3 13 0 0,2
20.06.2019 06:00:00 9,9 8,6 - - 22 12 - - S 1000,4 65 6 0,0
20.06.2019 05:00:00 9,2 7,6 - - 22 12 - - SSW 1000,7 65 0 0,0
20.06.2019 04:00:00 9,2 7,6 - - 21 11 - - SSW 1001,0 60 0 0,0
20.06.2019 03:00:00 9,0 7,9 - - 16 9 - - SSW 1001,5 65 0 0,0
20.06.2019 02:00:00 9,3 7,6 - - 18 10 - - SSW 1001,8 65 0 0,0
20.06.2019 01:00:00 9,5 8,1 - - 21 11 - - S 1001,9 50 - 0,0
20.06.2019 00:00:00 9,6 8,3 - - 18 10 - - SSW 1001,9 50 0 0,0
19.06.2019 23:00:00 9,8 8,2 - - 21 11 - - SSW 1002,1 65 0 0,0
19.06.2019 22:00:00 10,5 9,2 - - 15 8 - - SSW 1002,2 26 6 1,4
19.06.2019 21:00:00 11,0 9,4 - - 28 15 - - SSW 1001,9 6 0 0,6
19.06.2019 20:00:00 11,9 7,8 - - 29 16 - - SSW 1001,8 50 12 0,0
19.06.2019 19:00:00 12,9 7,7 - - 29 16 - - SSW 1001,9 60 6 0,0
19.06.2019 18:00:00 13,5 8,1 - - 31 17 48 26 SSW 1002,0 65 30 0,0
19.06.2019 17:00:00 13,1 8,8 - - 31 17 - - SSW 1002,2 50 48 0,0
19.06.2019 16:00:00 14,4 8,8 - - 34 18 - - SSW 1002,4 75 18 0,0
19.06.2019 15:00:00 13,1 7,8 - - 28 15 - - SSW 1002,8 75 54 0,0
19.06.2019 14:00:00 14,4 9,5 - - 29 16 - - SSW 1002,7 70 60 0,0
19.06.2019 13:00:00 13,0 10,1 - - 26 14 - - S 1002,7 60 36 0,0
19.06.2019 12:00:00 12,8 10,0 - - 22 12 - - S 1002,6 65 6 0,0
19.06.2019 11:00:00 12,2 9,8 - - 22 12 - - SSW 1002,9 75 0 0,0
19.06.2019 10:00:00 11,1 10,2 12,5 11,0 22 12 - - S 1003,0 50 0 0,0
19.06.2019 09:00:00 10,9 10,1 - - 22 12 - - S 1003,2 45 0 0,0
19.06.2019 08:00:00 10,7 10,0 - - 21 11 - - S 1003,3 45 0 0,0
19.06.2019 07:00:00 10,6 10,0 - - 18 10 - - S 1003,5 40 0 0,0
19.06.2019 06:00:00 10,4 9,7 - - 15 8 - - S 1003,8 55 0 0,0
19.06.2019 05:00:00 9,8 9,3 - - 11 6 - - S 1003,8 75 0 0,0
19.06.2019 04:00:00 10,1 9,5 - - 15 8 - - S 1004,2 75 0 0,0
19.06.2019 03:00:00 10,1 9,5 - - 18 10 - - SSW 1004,4 75 0 0,4
19.06.2019 02:00:00 10,6 10,0 - - 21 11 - - SSW 1004,7 35 0 0,4
19.06.2019 01:00:00 10,9 9,8 - - 24 13 - - S 1005,0 45 - 0,0
19.06.2019 00:00:00 10,9 10,1 - - 24 13 - - SSW 1005,3 21 0 0,0
18.06.2019 23:00:00 10,8 10,2 - - 24 13 - - SSW 1005,4 45 0 0,4
18.06.2019 22:00:00 11,0 10,1 - - 21 11 - - SSW 1005,7 23 0 0,2
18.06.2019 21:00:00 11,0 10,3 - - 22 12 - - SSW 1005,7 3,4 0 0,6
18.06.2019 20:00:00 11,7 10,1 - - 24 13 - - SSW 1005,6 45 0 0,0
18.06.2019 19:00:00 11,9 10,0 - - 21 11 - - SW 1005,6 30 0 0,0
18.06.2019 18:00:00 12,7 8,9 - - 26 14 - - SW 1005,5 75 0 0,0
18.06.2019 17:00:00 13,9 8,3 - - 28 15 46 25 WSW 1005,4 75 24 0,0
18.06.2019 16:00:00 14,0 9,0 - - 28 15 - - SW 1005,1 75 0 0,0
18.06.2019 15:00:00 12,8 7,9 - - 26 14 46 25 SW 1005,2 75 0 0,0
18.06.2019 14:00:00 13,1 8,7 - - 29 16 - - WSW 1004,9 75 0 0,0
18.06.2019 13:00:00 13,1 9,5 - - 28 15 - - WSW 1004,6 75 0 0,0
18.06.2019 12:00:00 13,6 9,8 - - 31 17 48 26 WSW 1004,0 75 12 0,0
18.06.2019 11:00:00 12,9 9,8 - - 35 19 48 26 WSW 1003,6 75 6 0,0
18.06.2019 10:00:00 12,1 10,0 12,5 11,0 34 18 50 27 WSW 1003,2 30 0 0,0
18.06.2019 09:00:00 12,4 10,8 - - 24 13 - - WSW 1002,5 75 0 0,0
18.06.2019 08:00:00 11,8 10,7 - - 24 13 - - SW 1002,1 60 12 0,6
18.06.2019 07:00:00 10,9 9,8 - - 24 13 46 25 SSW 1001,7 50 0 0,0
18.06.2019 06:00:00 10,4 9,3 - - 35 19 52 28 SSW 1001,8 10 0 0,2
18.06.2019 05:00:00 10,5 8,9 - - 34 18 52 28 SSW 1002,1 55 0 0,0
18.06.2019 04:00:00 10,7 9,8 - - 28 15 52 28 SSW 1002,2 40 0 1,0
18.06.2019 03:00:00 10,9 10,3 - - 34 18 50 27 S 1002,6 14 0 0,4
18.06.2019 02:00:00 10,9 10,1 - - 37 20 54 29 SSW 1003,5 9 0 0,6
18.06.2019 01:00:00 10,9 9,8 - - 35 19 52 28 SSW 1003,9 9 - 0,0
18.06.2019 00:00:00 10,8 10,1 - - 28 15 - - SSW 1004,3 24 0 0,0
17.06.2019 23:00:00 10,9 10,1 - - 24 13 - - S 1004,5 21 0 0,2
17.06.2019 22:00:00 10,7 8,3 - - 24 13 - - SSW 1004,9 23 0 0,0
17.06.2019 21:00:00 11,4 10,4 - - 15 8 - - S 1004,9 40 0 0,6
17.06.2019 20:00:00 11,7 9,6 - - 24 13 - - S 1004,6 75 0 0,0
17.06.2019 19:00:00 12,5 10,6 - - 13 7 - - SSW 1004,2 75 0 0,0
17.06.2019 18:00:00 11,2 10,2 - - 11 6 - - E 1004,1 7 0 1,8
17.06.2019 17:00:00 12,3 10,3 - - 21 11 - - SW 1003,8 4,5 36 0,0
17.06.2019 16:00:00 12,4 9,9 - - 21 11 - - S 1003,8 75 6 0,0
17.06.2019 15:00:00 12,5 9,7 - - 21 11 - - S 1003,8 75 0 0,0
17.06.2019 14:00:00 13,3 10,0 - - 24 13 - - SSW 1003,8 75 30 0,0
17.06.2019 13:00:00 13,9 11,0 - - 24 13 - - SSW 1003,5 80 18 0,4
17.06.2019 12:00:00 11,6 10,8 - - 18 10 - - SSW 1003,5 75 0 0,0
17.06.2019 11:00:00 11,3 10,4 - - 18 10 - - S 1003,6 75 0 0,4
17.06.2019 10:00:00 10,8 10,2 12,2 10,9 15 8 - - S 1003,8 30 0 0,0
17.06.2019 09:00:00 10,7 9,2 - - 5 3 - - SSE 1003,8 27 0 0,0
17.06.2019 08:00:00 10,3 9,5 - - 5 3 - - WSW 1003,7 75 0 0,4
17.06.2019 07:00:00 9,7 8,9 - - 8 4 - - W 1003,6 28 0 0,2
17.06.2019 06:00:00 10,1 9,1 - - 5 3 - - E 1003,4 75 0 0,0
17.06.2019 05:00:00 10,0 8,7 - - 8 4 - - NE 1003,5 40 0 0,0
17.06.2019 04:00:00 9,3 8,4 - - 9 5 - - N 1003,8 75 0 0,0
17.06.2019 03:00:00 8,1 7,4 - - 5 3 - - N 1004,4 75 0 0,0
17.06.2019 02:00:00 7,9 6,9 - - 2 1 - - NW 1004,9 75 0 0,0
17.06.2019 01:00:00 8,0 6,1 - - 4 2 52 28 E 1005,4 75 - 0,0
17.06.2019 00:00:00 8,6 7,1 - - 8 4 - - SE 1005,9 75 0 0,0
16.06.2019 23:00:00 9,7 8,0 - - 5 3 - - SSE 1006,3 75 0 0,0
16.06.2019 22:00:00 10,9 7,5 - - 9 5 - - S 1006,4 75 54 0,0
16.06.2019 21:00:00 12,1 8,1 - - 13 7 - - S 1006,5 75 60 0,0
16.06.2019 20:00:00 13,4 7,4 - - 18 10 - - SSW 1006,6 75 54 0,0
16.06.2019 19:00:00 13,6 8,9 - - 16 9 - - SSW 1006,5 75 36 0,0
16.06.2019 18:00:00 14,3 10,0 - - 16 9 - - SSW 1006,4 75 42 0,0
16.06.2019 17:00:00 12,8 10,7 - - 16 9 - - SSW 1006,7 75 6 0,6
16.06.2019 16:00:00 12,9 9,6 - - 21 11 - - SSW 1006,9 75 18 0,2
16.06.2019 15:00:00 12,0 8,9 - - 22 12 - - SW 1006,8 35 0 0,0
16.06.2019 14:00:00 12,2 8,5 - - 24 13 - - WSW 1006,7 75 0 0,0
16.06.2019 13:00:00 11,5 10,0 - - 22 12 - - SW 1006,4 75 0 0,6
16.06.2019 12:00:00 11,4 10,4 - - 28 15 - - SW 1006,1 8 6 1,0
16.06.2019 11:00:00 12,6 10,9 - - 26 14 - - SSW 1005,7 75 18 0,0
16.06.2019 10:00:00 12,4 11,3 12,0 10,7 13 7 - - S 1005,5 75 6 0,0
16.06.2019 09:00:00 12,8 11,1 - - 11 6 - - S 1005,3 75 42 0,0
16.06.2019 08:00:00 11,2 10,7 - - 16 9 - - S 1005,3 35 0 0,0
16.06.2019 07:00:00 11,2 10,9 - - 8 4 - - SW 1005,2 19 0 0,2
16.06.2019 06:00:00 10,4 10,1 - - 4 2 - - WSW 1005,1 11 0 0,6
16.06.2019 05:00:00 10,2 9,7 - - 5 3 - - SSW 1005,3 11 0 1,2
16.06.2019 04:00:00 10,1 9,2 - - 4 2 - - WNW 1005,6 21 0 0,0
16.06.2019 03:00:00 11,0 9,8 - - 8 4 - - NE 1005,9 75 0 0,0
16.06.2019 02:00:00 11,0 9,8 - - 8 4 - - N 1006,2 30 0 0,2
16.06.2019 01:00:00 11,2 9,9 - - 9 5 - - NNW 1006,5 75 - 0,0
16.06.2019 00:00:00 11,8 10,7 - - 9 5 - - NW 1007,0 55 0 0,2
15.06.2019 23:00:00 12,1 10,7 - - 9 5 - - ENE 1007,3 3,1 0 2,2
15.06.2019 22:00:00 12,3 10,3 - - 9 5 - - NE 1007,2 35 42 0,0
15.06.2019 21:00:00 12,4 10,5 - - 11 6 - - ENE 1007,0 35 60 0,0
15.06.2019 20:00:00 13,1 10,7 - - 9 5 - - ENE 1007,4 45 54 0,0
15.06.2019 19:00:00 13,3 10,8 - - 8 4 - - ENE 1007,6 70 24 0,0
15.06.2019 18:00:00 12,6 11,1 - - 5 3 - - NNE 1007,7 45 0 0,0
15.06.2019 17:00:00 13,3 11,3 - - 5 3 - - ENE 1008,3 45 0 0,0
15.06.2019 16:00:00 12,9 10,5 - - 8 4 - - S 1008,3 60 0 0,2
15.06.2019 15:00:00 12,6 11,0 - - 13 7 - - S 1008,3 50 0 0,2
15.06.2019 14:00:00 12,8 11,0 - - 16 9 - - SE 1008,4 15 0 0,4
15.06.2019 13:00:00 13,7 10,3 - - 26 14 - - ESE 1008,0 50 0 0,0
15.06.2019 12:00:00 14,0 10,4 - - 21 11 - - E 1008,0 30 0 0,0
15.06.2019 11:00:00 14,9 10,5 - - 22 12 - - E 1007,8 75 6 0,0
15.06.2019 10:00:00 13,3 9,3 11,7 10,9 29 16 - - ESE 1007,7 75 0 0,0
15.06.2019 09:00:00 11,6 9,4 - - 26 14 - - ESE 1007,8 45 0 0,2
15.06.2019 08:00:00 11,0 9,4 - - 22 12 - - E 1007,8 25 0 0,4
15.06.2019 07:00:00 10,5 9,3 - - 15 8 - - ESE 1007,6 14 0 0,8
15.06.2019 06:00:00 10,6 8,9 - - 21 11 - - ESE 1007,4 19 0 0,0
15.06.2019 05:00:00 9,9 8,0 - - 16 9 - - ESE 1007,1 75 0 0,0
15.06.2019 04:00:00 9,9 8,4 - - 15 8 - - E 1006,9 75 0 0,0
15.06.2019 03:00:00 10,3 8,7 - - 13 7 - - E 1007,3 55 0 0,2
15.06.2019 02:00:00 9,5 8,2 - - 11 6 - - E 1007,5 75 0 0,0
15.06.2019 01:00:00 8,8 7,3 - - 9 5 - - E 1007,5 75 - 0,0
15.06.2019 00:00:00 9,5 8,0 - - 9 5 - - SSE 1007,2 70 0 0,0
14.06.2019 23:00:00 9,9 7,9 - - 15 8 - - S 1006,7 75 0 0,0
14.06.2019 22:00:00 10,1 8,4 - - 16 9 - - S 1006,1 65 6 0,0
14.06.2019 21:00:00 10,8 8,1 - - 26 14 - - S 1005,4 75 54 0,0
14.06.2019 20:00:00 11,2 9,4 - - 18 10 - - S 1004,9 70 60 0,0
14.06.2019 19:00:00 10,8 9,5 - - 24 13 - - S 1004,4 45 18 0,6
14.06.2019 18:00:00 12,2 9,6 - - 29 16 50 27 S 1003,6 45 36 0,0
14.06.2019 17:00:00 12,6 10,1 - - 22 12 - - S 1002,9 65 18 0,0
14.06.2019 16:00:00 12,7 9,3 - - 28 15 - - S 1002,3 75 36 0,0
14.06.2019 15:00:00 11,4 8,9 - - 24 13 - - S 1001,8 70 42 0,0
14.06.2019 14:00:00 11,8 8,6 - - 28 15 - - S 1001,4 75 12 0,0
14.06.2019 13:00:00 11,2 8,5 - - 34 18 - - S 1001,0 75 18 0,0

tt = temperature
td = dewpoint
tt -20cm = temperature -20cm
tt -100cm = temperature -100cm
ff = wind speed
fx = gusts
dd = wind direction
ppp = reduced air pressure
vv = visibility
sd = sunshine duration
rr = precipitation

Next stations